RPC3925 RPVP-RPVK

Flight info

Callsign RPC3925
Flight time 0h 52m
Altitude 34000
Route SAIRA1E SAIRA DCT MARAN W17 IOO TR14 BUSOG BUSOG1R
Aircraft C25C/M-SDE2E3FGHRWXY/LB1

Departure

Time 2026-04-17 17:15
Airport Puerto Princesa International Airport / PAF Antonio Bautista Air Base (RPVP)

Arrival

Time 2026-04-17 18:07
Airport Kalibo International Airport (RPVK)
Time Latitude Longitude Altitude Speed Heading
2026-04-17 16:58 9.74511 118.75155 70 ft 0 kts
2026-04-17 17:12 9.74512 118.75154 70 ft 0 kts 326°
2026-04-17 17:12 9.74511 118.75150 70 ft 1 kts 233°
2026-04-17 17:12 9.74500 118.75153 65 ft 7 kts 162°
2026-04-17 17:13 9.74420 118.75144 70 ft 13 kts 224°
2026-04-17 17:13 9.74416 118.75050 69 ft 14 kts 271°
2026-04-17 17:13 9.74421 118.74942 71 ft 17 kts 274°
2026-04-17 17:13 9.74426 118.74813 69 ft 20 kts 271°
2026-04-17 17:14 9.74368 118.74708 68 ft 20 kts 186°
2026-04-17 17:14 9.74264 118.74733 70 ft 11 kts 98°
2026-04-17 17:14 9.74261 118.74795 70 ft 6 kts 93°
2026-04-17 17:15 9.74257 118.74904 71 ft 29 kts 92°
2026-04-17 17:15 9.74241 118.75269 66 ft 83 kts 92°
2026-04-17 17:15 9.74203 118.76147 117 ft 155 kts 93°
2026-04-17 17:15 9.74153 118.77311 672 ft 170 kts 92°
2026-04-17 17:16 9.74101 118.78532 1595 ft 186 kts 92°
2026-04-17 17:16 9.74034 118.79952 2344 ft 216 kts 92°
2026-04-17 17:16 9.73930 118.81544 3085 ft 236 kts 92°
2026-04-17 17:16 9.73849 118.83255 3825 ft 250 kts 92°
2026-04-17 17:17 9.73778 118.85054 4576 ft 260 kts 92°
2026-04-17 17:17 9.73705 118.86912 5287 ft 272 kts 93°
2026-04-17 17:17 9.73614 118.88931 6014 ft 298 kts 93°
2026-04-17 17:17 9.73528 118.91043 6830 ft 294 kts 94°
2026-04-17 17:18 9.73441 118.93070 7697 ft 293 kts 93°
2026-04-17 17:18 9.73352 118.95155 8655 ft 298 kts 94°
2026-04-17 17:18 9.73262 118.97260 9633 ft 300 kts 93°
2026-04-17 17:18 9.73171 118.99377 10552 ft 301 kts 93°
2026-04-17 17:19 9.73083 119.01502 11482 ft 302 kts 92°
2026-04-17 17:19 9.72988 119.03633 12349 ft 304 kts 92°
2026-04-17 17:19 9.72900 119.05778 13209 ft 305 kts 91°
2026-04-17 17:19 9.72905 119.07921 14040 ft 304 kts 85°
2026-04-17 17:20 9.72987 119.10060 14833 ft 303 kts 88°
2026-04-17 17:20 9.73011 119.12194 15643 ft 302 kts 88°
2026-04-17 17:20 9.73066 119.14319 16484 ft 301 kts 87°
2026-04-17 17:20 9.73139 119.16443 17261 ft 306 kts 87°
2026-04-17 17:21 9.73206 119.18649 18013 ft 320 kts 87°
2026-04-17 17:21 9.73273 119.20926 18693 ft 333 kts 87°
2026-04-17 17:21 9.73338 119.23346 19381 ft 344 kts 87°
2026-04-17 17:21 9.73411 119.25803 20077 ft 353 kts 88°
2026-04-17 17:22 9.73484 119.28321 20789 ft 361 kts 88°
2026-04-17 17:22 9.73556 119.30861 21507 ft 368 kts 88°
2026-04-17 17:22 9.73633 119.33507 22264 ft 374 kts 88°
2026-04-17 17:22 9.73707 119.36160 23029 ft 379 kts 88°
2026-04-17 17:23 9.73785 119.38816 23742 ft 383 kts 88°
2026-04-17 17:23 9.73863 119.41566 24402 ft 387 kts 87°
2026-04-17 17:23 9.74355 119.44240 25057 ft 389 kts 68°
2026-04-17 17:23 9.75515 119.46725 25742 ft 391 kts 63°
2026-04-17 17:24 9.76760 119.49180 26441 ft 392 kts 61°
2026-04-17 17:24 9.78050 119.51618 27156 ft 393 kts 62°
2026-04-17 17:24 9.79299 119.54080 27889 ft 393 kts 62°
2026-04-17 17:24 9.80528 119.56555 28643 ft 393 kts 62°
2026-04-17 17:25 9.81752 119.58988 29399 ft 392 kts 62°
2026-04-17 17:25 9.83000 119.61438 30157 ft 390 kts 62°
2026-04-17 17:25 9.84240 119.63883 30831 ft 389 kts 62°
2026-04-17 17:25 9.85464 119.66312 31523 ft 387 kts 62°
2026-04-17 17:26 9.86686 119.68735 32225 ft 384 kts 62°
2026-04-17 17:26 9.87900 119.71136 32950 ft 381 kts 62°
2026-04-17 17:26 9.89104 119.73517 33687 ft 377 kts 62°
2026-04-17 17:26 9.90315 119.75914 33894 ft 390 kts 62°
2026-04-17 17:27 9.91576 119.78414 33895 ft 406 kts 62°
2026-04-17 17:27 9.92887 119.81011 33905 ft 420 kts 62°
2026-04-17 17:27 9.94239 119.83689 33917 ft 432 kts 62°
2026-04-17 17:27 9.95605 119.86400 33914 ft 443 kts 62°
2026-04-17 17:28 9.97027 119.89216 33914 ft 453 kts 62°
2026-04-17 17:28 9.99949 119.95011 33912 ft 469 kts 62°
2026-04-17 17:29 10.02895 120.00857 33915 ft 461 kts 62°
2026-04-17 17:29 10.05796 120.06619 33914 ft 456 kts 62°
2026-04-17 17:30 10.08665 120.12320 33913 ft 451 kts 62°
2026-04-17 17:30 10.11511 120.17977 33911 ft 448 kts 62°
2026-04-17 17:31 10.14341 120.23604 33907 ft 446 kts 62°
2026-04-17 17:31 10.17176 120.29245 33907 ft 452 kts 62°
2026-04-17 17:32 10.20050 120.34967 33907 ft 457 kts 62°
2026-04-17 17:32 10.22931 120.40757 33908 ft 461 kts 65°
2026-04-17 17:33 10.24954 120.46957 33908 ft 464 kts 73°
2026-04-17 17:33 10.26784 120.53209 33909 ft 466 kts 73°
2026-04-17 17:34 10.28638 120.59531 33907 ft 468 kts 73°
2026-04-17 17:34 10.30494 120.65876 33910 ft 469 kts 73°
2026-04-17 17:35 10.32353 120.72233 33906 ft 469 kts 73°
2026-04-17 17:35 10.34215 120.78599 33908 ft 470 kts 73°
2026-04-17 17:36 10.36075 120.84969 33905 ft 470 kts 73°
2026-04-17 17:36 10.37925 120.91306 33905 ft 471 kts 73°
2026-04-17 17:37 10.39787 120.97696 33904 ft 470 kts 73°
2026-04-17 17:37 10.41619 121.03989 33905 ft 459 kts 73°
2026-04-17 17:38 10.43413 121.10149 33897 ft 451 kts 73°
2026-04-17 17:38 10.45181 121.16229 33887 ft 445 kts 73°
2026-04-17 17:39 10.46913 121.22185 33886 ft 440 kts 73°
2026-04-17 17:39 10.48645 121.28144 33885 ft 440 kts 73°
2026-04-17 17:40 10.50394 121.34166 33888 ft 447 kts 73°
2026-04-17 17:40 10.52159 121.40254 33866 ft 452 kts 73°
2026-04-17 17:40 10.53054 121.43347 33520 ft 462 kts 73°
2026-04-17 17:41 10.53973 121.46516 33144 ft 471 kts 73°
2026-04-17 17:41 10.54884 121.49663 32784 ft 455 kts 73°
2026-04-17 17:41 10.55759 121.52691 32411 ft 437 kts 73°
2026-04-17 17:41 10.56603 121.55602 32045 ft 423 kts 73°
2026-04-17 17:42 10.57420 121.58435 31679 ft 411 kts 73°
2026-04-17 17:42 10.58218 121.61189 31316 ft 401 kts 73°
2026-04-17 17:42 10.58996 121.63883 30961 ft 393 kts 73°
2026-04-17 17:42 10.59750 121.66492 30610 ft 386 kts 73°
2026-04-17 17:43 10.60500 121.69087 30266 ft 381 kts 73°
2026-04-17 17:43 10.61241 121.71657 29914 ft 375 kts 73°
2026-04-17 17:43 10.61972 121.74186 29510 ft 374 kts 73°
2026-04-17 17:43 10.62720 121.76779 29116 ft 393 kts 73°
2026-04-17 17:44 10.63509 121.79515 28736 ft 411 kts 73°
2026-04-17 17:44 10.64329 121.82356 28368 ft 426 kts 73°
2026-04-17 17:44 10.65173 121.85288 28011 ft 438 kts 73°
2026-04-17 17:44 10.66031 121.88261 27669 ft 432 kts 73°
2026-04-17 17:45 10.66862 121.91157 27297 ft 421 kts 73°
2026-04-17 17:45 10.67680 121.93989 26943 ft 413 kts 73°
2026-04-17 17:45 10.68483 121.96772 26585 ft 407 kts 73°
2026-04-17 17:45 10.69275 121.99514 26229 ft 402 kts 73°
2026-04-17 17:46 10.70046 122.02188 25883 ft 397 kts 73°
2026-04-17 17:46 10.70821 122.04879 25539 ft 396 kts 73°
2026-04-17 17:46 10.71603 122.07603 25161 ft 405 kts 74°
2026-04-17 17:46 10.72393 122.10385 24722 ft 414 kts 74°
2026-04-17 17:47 10.73210 122.13219 24290 ft 420 kts 74°
2026-04-17 17:47 10.74036 122.16085 23858 ft 425 kts 74°
2026-04-17 17:47 10.74867 122.18980 23426 ft 423 kts 74°
2026-04-17 17:47 10.75692 122.21814 22920 ft 414 kts 73°
2026-04-17 17:48 10.76493 122.24602 22417 ft 407 kts 74°
2026-04-17 17:48 10.77279 122.27351 21921 ft 402 kts 74°
2026-04-17 17:48 10.78055 122.30066 21435 ft 398 kts 73°
2026-04-17 17:48 10.78829 122.32760 20947 ft 395 kts 74°
2026-04-17 17:49 10.79597 122.35435 20474 ft 392 kts 73°
2026-04-17 17:49 10.80354 122.38085 20008 ft 389 kts 73°
2026-04-17 17:49 10.81110 122.40717 19550 ft 387 kts 73°
2026-04-17 17:49 10.81896 122.43329 19093 ft 385 kts 69°
2026-04-17 17:50 10.83295 122.45622 18629 ft 383 kts 49°
2026-04-17 17:50 10.85320 122.47322 18177 ft 374 kts 30°
2026-04-17 17:50 10.87712 122.48250 17653 ft 366 kts 11°
2026-04-17 17:50 10.90195 122.48367 17152 ft 360 kts 355°
2026-04-17 17:51 10.92687 122.48062 16653 ft 354 kts 353°
2026-04-17 17:51 10.95108 122.47733 16168 ft 349 kts 352°
2026-04-17 17:51 10.97473 122.47417 15696 ft 345 kts 353°
2026-04-17 17:51 10.99844 122.47117 15227 ft 342 kts 353°
2026-04-17 17:52 11.02192 122.46825 14761 ft 339 kts 353°
2026-04-17 17:52 11.04521 122.46523 14301 ft 336 kts 353°
2026-04-17 17:52 11.06828 122.46228 13886 ft 333 kts 353°
2026-04-17 17:52 11.09109 122.45934 13526 ft 328 kts 354°
2026-04-17 17:53 11.11360 122.45648 13145 ft 324 kts 353°
2026-04-17 17:53 11.13580 122.45363 12768 ft 320 kts 354°
2026-04-17 17:53 11.15785 122.45080 12394 ft 318 kts 353°
2026-04-17 17:53 11.17974 122.44801 12023 ft 316 kts 354°
2026-04-17 17:54 11.20154 122.44882 11648 ft 313 kts 15°
2026-04-17 17:54 11.22242 122.45514 11198 ft 315 kts 16°
2026-04-17 17:54 11.24362 122.46117 10731 ft 317 kts 17°
2026-04-17 17:54 11.26487 122.46764 10269 ft 319 kts 17°
2026-04-17 17:55 11.28593 122.47392 9815 ft 320 kts 17°
2026-04-17 17:55 11.30731 122.48026 9308 ft 320 kts 17°
2026-04-17 17:55 11.32874 122.48660 8812 ft 321 kts 17°
2026-04-17 17:55 11.34690 122.49198 8399 ft 321 kts 17°
2026-04-17 17:56 11.36136 122.49628 8070 ft 321 kts 17°
2026-04-17 17:56 11.38264 122.50261 7595 ft 311 kts 17°
2026-04-17 17:56 11.40262 122.50854 7113 ft 291 kts 17°
2026-04-17 17:56 11.42192 122.51427 6641 ft 286 kts 16°
2026-04-17 17:57 11.44698 122.52175 6004 ft 281 kts 16°
2026-04-17 17:57 11.45968 122.52550 5669 ft 279 kts 16°
2026-04-17 17:57 11.48421 122.53281 5026 ft 275 kts 16°
2026-04-17 17:57 11.49660 122.53646 4704 ft 273 kts 16°
2026-04-17 17:58 11.51447 122.54180 4215 ft 271 kts 17°
2026-04-17 17:58 11.53228 122.54705 4030 ft 258 kts 16°
2026-04-17 17:58 11.54902 122.55207 3999 ft 242 kts 17°
2026-04-17 17:58 11.56481 122.55673 3983 ft 230 kts 17°
2026-04-17 17:59 11.57991 122.56125 3986 ft 227 kts 16°
2026-04-17 17:59 11.59526 122.56581 3984 ft 233 kts 17°
2026-04-17 17:59 11.61092 122.57046 3984 ft 237 kts 16°
2026-04-17 17:59 11.62695 122.57525 3988 ft 241 kts 17°
2026-04-17 18:00 11.64316 122.58004 3989 ft 244 kts 17°
2026-04-17 18:00 11.65949 122.58494 3989 ft 246 kts 17°
2026-04-17 18:00 11.67595 122.58980 3994 ft 247 kts 17°
2026-04-17 18:00 11.69256 122.59457 3992 ft 248 kts 12°
2026-04-17 18:01 11.70990 122.59306 3755 ft 260 kts 340°
2026-04-17 18:01 11.72531 122.58325 3515 ft 259 kts 321°
2026-04-17 18:01 11.73860 122.57126 3279 ft 251 kts 320°
2026-04-17 18:01 11.75134 122.55942 2940 ft 242 kts 320°
2026-04-17 18:02 11.76373 122.54838 2576 ft 231 kts 321°
2026-04-17 18:02 11.77552 122.53796 2429 ft 220 kts 321°
2026-04-17 18:02 11.78590 122.52722 2341 ft 208 kts 304°
2026-04-17 18:02 11.78961 122.51395 2164 ft 183 kts 274°
2026-04-17 18:03 11.78722 122.50238 1979 ft 158 kts 247°
2026-04-17 18:03 11.78105 122.49359 1779 ft 150 kts 226°
2026-04-17 18:03 11.77432 122.48566 1592 ft 146 kts 229°
2026-04-17 18:03 11.76749 122.47775 1412 ft 154 kts 228°
2026-04-17 18:04 11.76041 122.46949 1247 ft 155 kts 228°
2026-04-17 18:04 11.75334 122.46124 1084 ft 154 kts 229°
2026-04-17 18:04 11.74640 122.45321 1044 ft 148 kts 229°
2026-04-17 18:04 11.73968 122.44540 1013 ft 145 kts 228°
2026-04-17 18:05 11.73306 122.43769 970 ft 144 kts 228°
2026-04-17 18:05 11.72641 122.43000 918 ft 144 kts 229°
2026-04-17 18:05 11.71980 122.42233 868 ft 144 kts 228°
2026-04-17 18:05 11.71320 122.41460 774 ft 145 kts 229°
2026-04-17 18:06 11.70665 122.40703 630 ft 137 kts 228°
2026-04-17 18:06 11.70047 122.39989 429 ft 131 kts 228°
2026-04-17 18:06 11.69459 122.39301 269 ft 126 kts 229°
2026-04-17 18:06 11.68882 122.38633 100 ft 121 kts 229°
2026-04-17 18:07 11.68365 122.38030 18 ft 103 kts 229°
2026-04-17 18:07 11.67957 122.37561 17 ft 75 kts 229°
2026-04-17 18:07 11.67660 122.37211 16 ft 56 kts 229°
2026-04-17 18:07 11.67529 122.37071 15 ft 9 kts 288°
2026-04-17 18:08 11.67568 122.37102 15 ft 16 kts 54°
2026-04-17 18:08 11.67686 122.37238 16 ft 35 kts 48°
2026-04-17 18:08 11.67875 122.37460 17 ft 43 kts 49°
2026-04-17 18:08 11.68063 122.37678 17 ft 40 kts 49°
2026-04-17 18:09 11.68240 122.37885 15 ft 38 kts 49°
2026-04-17 18:09 11.68373 122.38008 15 ft 11 kts 340°
2026-04-17 18:09 11.68411 122.38002 15 ft 5 kts 45°
2026-04-17 18:09 11.68434 122.38004 15 ft 3 kts 349°
2026-04-17 18:10 11.68456 122.37999 16 ft 3 kts 346°
2026-04-17 18:10 11.68473 122.37996 16 ft 3 kts 350°
2026-04-17 18:10 11.68480 122.37995 16 ft 0 kts 348°